Regional Weather Roundup
Issued by NWS State College, PA

Home | Current Version | Previous Version | Graphics & Text | Print | Product List | Glossary On
Versions: 1 2 3 4 5 6 7 8 9 10 11 12 13 14 15 16 17 18 19 20 21 22 23 24 25 26 27 28 29 30 31 32 33 34 35 36 37 38 39 40 41 42 43 44 45 46 47 48 49 50
000
ASUS41 KCTP 050310
RWRCTP

REGIONAL WEATHER ROUNDUP
NATIONAL WEATHER SERVICE STATE COLLEGE PA
1100 PM EDT SAT JUL 04 2015

Note: "fair" indicates few or no clouds below 12,000 feet with no
significant weather and/or obstructions to visibility.

* = STATION THAT DOES NOT REPORT PRECIPITATION /E.G. RAIN...SNOW...ETC/
    THUNDER OR FOG.

PAZ002>004-007>009-013>016-020>023-029>032-050400-
WESTERN PENNSYLVANIA

CITY           SKY/WX    TMP DP  RH WIND       PRES   REMARKS
ERIE           CLEAR     62  54  74 S5        30.05R
MEADVILLE      CLEAR     62  49  62 CALM      30.08R
FRANKLIN*      CLEAR     57  48  72 CALM      30.09R
NEW CASTLE     FAIR      59  56  89 CALM      30.08R
BEAVER COUNTY  NOT AVBL
BUTLER*        CLEAR     63  54  72 NE3       30.09R
PITTSBURGH INT PTCLDY    70  54  56 NE3       30.06R
PITTSBURGH     CLEAR     68  51  54 N5        30.06R
INDIANA*       CLOUDY    64  59  82 CALM      30.10R
LATROBE        NOT AVBL
WASHINGTON CO* NOT AVBL
$$

PAZ004>006-010>012-017>019-024>028-033>037-041-042-045-046-049>053-050400-
CENTRAL PENNSYLVANIA

CITY           SKY/WX    TMP DP  RH WIND       PRES   REMARKS
BRADFORD       CLEAR     53  51  93 NW5       30.08R
DUBOIS         CLEAR     59  54  83 CALM      30.07R
CLEARFIELD     CLEAR     63  61  93 N5        30.07R FOG
JOHNSTOWN      PTCLDY    65  54  67 NW8       30.09R
ALTOONA        PTCLDY    62  60  93 CALM      30.07R FOG
STATE COLLEGE  CLOUDY    64  63  94 CALM      30.06R FOG
WILLIAMSPORT   PTCLDY    63  61  93 CALM      30.03R
SELINSGROVE    PTCLDY    64  62  93 CALM      30.04R FOG
FT INDIANTOWN  CLOUDY    65  64  95 N2        30.04R
CAPITAL CITY   PTCLDY    66  62  87 CALM      30.03R
HARRISBURG     MOCLDY    67  63  87 CALM      30.02S
YORK           CLOUDY    67  64  90 CALM      30.03S
$$

PAZ038>040-043-044-047-048-054-055-060>062-067>071-050400-
EASTERN PENNSYLVANIA

CITY           SKY/WX    TMP DP  RH WIND       PRES   REMARKS
SCRANTON       PTCLDY    63  60  90 CALM      30.04R FOG
MOUNT POCONO   PTCLDY    57  54  89 NW3       30.07S FOG
ALLENTOWN      CLOUDY    67  64  90 CALM      30.03R FOG
QUAKERTOWN*    CLOUDY    66  63  88 CALM      30.04S
READING        CLOUDY    68  63  84 CALM      30.02S
LANCASTER      CLOUDY    66  64  93 CALM      30.03R FOG
COATESVILLE    CLOUDY    66  66 100 CALM      30.05R FOG
POTTSTOWN      CLOUDY    66  66 100 CALM      30.04R FOG
BLUE BELL      CLOUDY    68  63  83 CALM      30.03R
DOYLESTOWN     CLOUDY    65  59  81 CALM      30.03R
WILLOW GROVE   NOT AVBL
NORTH PHILA    CLOUDY    69  57  65 CALM      30.04R
PHILADELPHIA   CLOUDY    70  58  65 NE6       30.02R
$$



USA.gov is the U.S. government's official web portal to all federal, state and local government web resources and services.